Tracking 18980 objects as of 18-Feb-2018
HD Live streaming from Space Station
objects crossing your sky now

NOAA 16 DEB

Track NOAA 16 DEB now!
10-day predictions


NORAD ID: 41254
Int'l Code: 2000-055FE
Perigee: 806.0 km
Apogee: 854.8 km
Inclination: 99.1 °
Period: 101.4 minutes
Semi major axis: 7201 km
RCS: Unknown
Launch date: September 21, 2000
Source: United States (US)
Launch site: AIR FORCE WESTERN TEST RANGE (AFWTR)

Note: This is SATELLITE DEBRIS
aabbcc
Your satellite tracking list
Your tracking list is empty




NASA's NSSDC Master Catalog

Two Line Element Set (TLE):
1 41254U 00055FE  18048.50249374 +.00001669 +00000-0 +79255-3 0  9994
2 41254 099.0762 149.4614 0033857 359.1037 001.0073 14.20624808109796
Source of the keplerian elements: AFSPC